Location: Unspecified
(0.0000°N, 0.0000°E)
Time: 09:56:31
(UTC+00:00)

A-11 Canister half - Pass Details

Date: 22 June 2024
Orbit: 1515 x 1684 km, 47.2° (Epoch: 23 July)

Event Time Altitude Azimuth Distance (km) Brightness Sun altitude
Rises 01:49:41 0° 331° (NNW) 4,726 11.7 -54.9°
Enters shadow 01:50:57 - 333° (NNW) 4,331 11.5 -54.7°
Exits shadow 02:11:23 - 124° (SE) 3,874 11.2 -50.8°
Sets 02:13:52 0° 128° (SE) 4,656 11.6 -50.4°
